This is the latest recevied weather packets stored in our database for station/object IZ8GMP-13. If no packets are shown the sender has not sent any weather packets the latest 10 day(s).
| Time | Temp. | Humidity | Pressure | Rain* | Wind** | Luminosity | Snow |
|---|---|---|---|---|---|---|---|
| 1777243784 | 15.56° C | 47% | 1019 hPa | - | - | - | - |
| 1777242581 | 16.11° C | 46% | 1019.1 hPa | - | - | - | - |
| 1777241377 | 16.11° C | 40% | 1019.2 hPa | - | - | - | - |
| 1777238971 | 16.11° C | 38% | 1019.3 hPa | - | - | - | - |
| 1777237767 | 16.67° C | 44% | 1019.5 hPa | - | - | - | - |
| 1777236564 | 16.67° C | 43% | 1019.4 hPa | - | - | - | - |
| 1777235360 | 17.22° C | 44% | 1019.4 hPa | - | - | - | - |
| 1777234157 | 17.22° C | 45% | 1019.4 hPa | - | - | - | - |
| 1777232953 | 17.22° C | 44% | 1019.4 hPa | - | - | - | - |
| 1777231750 | 17.78° C | 42% | 1019.1 hPa | - | - | - | - |
| 1777230546 | 17.78° C | 38% | 1019 hPa | - | - | - | - |
| 1777228139 | 18.33° C | 44% | 1018.7 hPa | - | - | - | - |
| 1777225732 | 18.89° C | 40% | 1018.2 hPa | - | - | - | - |
| 1777224529 | 18.89° C | 41% | 1018 hPa | - | - | - | - |
| 1777223326 | 19.44° C | 40% | 1018 hPa | - | - | - | - |
| 1777222122 | 19.44° C | 45% | 1018.1 hPa | - | - | - | - |
| 1777220919 | 19.44° C | 42% | 1018 hPa | - | - | - | - |
| 1777219715 | 20° C | 41% | 1018 hPa | - | - | - | - |
| 1777218512 | 20° C | 46% | 1018 hPa | - | - | - | - |
| 1777217308 | 20° C | 46% | 1017.8 hPa | - | - | - | - |
| 1777216105 | 20° C | 48% | 1017.9 hPa | - | - | - | - |
| 1777214901 | 20° C | 48% | 1018 hPa | - | - | - | - |
| 1777213698 | 20° C | 50% | 1018 hPa | - | - | - | - |
| 1777212494 | 20° C | 53% | 1018.1 hPa | - | - | - | - |
| 1777211291 | 19.44° C | 52% | 1018.2 hPa | - | - | - | - |
* Rain since midnight (hover to see other rain measurements)
** Current wind speed in m/s (hover to see current wind gust speed)